FW8222 Weather Reports


Display with metric or nautical units.
time (UTC)temp
F
wind
direction
speed
MPH
gust
MPH
rain 1hr
in
rain 24hr
in
rain mn
in
humidity
%
barometer
mb
20260510142421 64 237 8.0 10.0 0.00 0.00 0.00 70 1019.6
20260510141917 64 256 11.0 13.0 0.00 0.00 0.00 70 1019.6
20260510141415 64 243 10.0 10.0 0.00 0.00 0.00 71 1019.7
20260510140912 64 229 12.0 14.0 0.00 0.00 0.00 71 1019.5
20260510140408 64 227 9.0 10.0 0.00 0.00 0.00 70 1019.4
20260510135901 64 215 12.0 15.0 0.00 0.00 0.00 70 1019.3
20260510135357 64 240 8.0 9.0 0.00 0.00 0.00 71 1019.3
20260510134855 64 238 12.0 14.0 0.00 0.00 0.00 69 1019.0
20260510134351 64 231 12.0 13.0 0.00 0.00 0.00 70 1019.2
20260510133848 63 240 9.0 13.0 0.00 0.00 0.00 73 1018.9
20260510133344 63 231 8.0 9.0 0.00 0.00 0.00 72 1018.8
20260510132839 63 217 6.0 7.0 0.00 0.00 0.00 74 1018.7
20260510132338 63 219 6.0 7.0 0.00 0.00 0.00 74 1018.7
20260510131834 63 230 8.0 9.0 0.00 0.00 0.00 76 1018.6
20260510131332 62 216 7.0 8.0 0.00 0.00 0.00 77 1018.6
20260510130828 62 214 8.0 9.0 0.00 0.00 0.00 77 1018.6
20260510130325 62 269 7.0 9.0 0.00 0.00 0.00 78 1018.1
20260510125822 61 240 8.0 9.0 0.00 0.00 0.00 79 1018.2
20260510125318 61 233 9.0 11.0 0.00 0.00 0.00 79 1018.2
20260510124815 60 234 7.0 8.0 0.00 0.00 0.00 79 1018.1
20260510124312 60 246 5.0 8.0 0.00 0.00 0.00 80 1017.9
20260510123807 60 230 7.0 8.0 0.00 0.00 0.00 80 1017.9
20260510123303 60 228 9.0 10.0 0.00 0.00 0.00 80 1017.8
20260510122759 60 280 8.0 8.0 0.00 0.00 0.00 80 1017.7
20260510122256 59 215 11.0 11.0 0.00 0.00 0.00 79 1017.7
20260510121752 59 217 4.0 5.0 0.00 0.00 0.00 80 1017.6
20260510121250 58 209 5.0 6.0 0.00 0.00 0.00 81 1017.6
20260510120747 58 233 5.0 6.0 0.00 0.00 0.00 80 1017.7
20260510120244 58 226 6.0 7.0 0.00 0.00 0.00 80 1017.5
20260510115739 58 249 5.0 6.0 0.00 0.00 0.00 80 1017.6
20260510115238 58 245 8.0 9.0 0.00 0.00 0.00 79 1017.3
20260510114732 58 234 6.0 7.0 0.00 0.00 0.00 79 1017.1
20260510114230 57 241 5.0 6.0 0.00 0.00 0.00 77 1017.2
20260510113725 57 228 4.0 5.0 0.00 0.00 0.00 79 1017.3
20260510113223 58 216 4.0 5.0 0.00 0.00 0.00 78 1017.1
20260510112718 57 227 5.0 5.0 0.00 0.00 0.00 80 1017.2
20260510112216 57 244 4.0 5.0 0.00 0.00 0.00 78 1016.9
20260510111711 57 246 5.0 5.0 0.00 0.00 0.00 79 1016.8
20260510111209 55 208 5.0 6.0 0.00 0.00 0.00 82 1016.8
20260510110709 55 219 5.0 5.0 0.00 0.00 0.00 84 1017.0
20260510110207 55 227 0.0 0.0 0.00 0.00 0.00 82 1016.7
20260510105706 54 219 3.0 3.0 0.00 0.00 0.00 84 1016.6
20260510105201 54 225 0.0 0.0 0.00 0.00 0.00 86 1016.6
20260510104658 55 182 1.0 1.0 0.00 0.00 0.00 84 1016.7
20260510104155 55 175 0.0 0.0 0.00 0.00 0.00 84 1016.6
20260510103652 55 197 0.0 0.0 0.00 0.00 0.00 84 1016.6
20260510103148 55 206 0.0 0.0 0.00 0.00 0.00 85 1016.6
20260510102648 56 216 0.0 0.0 0.00 0.00 0.00 83 1016.3
20260510102145 58 227 0.0 0.0 0.00 0.00 0.00 79 1016.4
20260510101642 57 292 0.0 0.0 0.00 0.00 0.00 80 1016.4
20260510101141 57 339 0.0 0.0 0.00 0.00 0.00 78 1016.2
20260510100636 57 15 0.0 0.0 0.00 0.00 0.00 79 1016.2
20260510100134 57 172 0.0 0.0 0.00 0.00 0.00 79 1016.1
20260510095629 55 208 0.0 0.0 0.00 0.00 0.00 82 1015.9
20260510095125 54 213 0.0 0.0 0.00 0.00 0.00 85 1015.9
20260510094623 54 212 0.0 0.0 0.00 0.00 0.00 86 1015.8
20260510094119 54 229 3.0 3.0 0.00 0.00 0.00 86 1015.9
20260510093616 55 215 0.0 0.0 0.00 0.00 0.00 85 1015.9
20260510093113 56 213 0.0 0.0 0.00 0.00 0.00 83 1015.9
20260510092609 57 200 0.0 0.0 0.00 0.00 0.00 83 1015.9
20260510092109 57 197 0.0 0.0 0.00 0.00 0.00 81 1015.9
20260510091606 57 233 2.0 2.0 0.00 0.00 0.00 81 1015.7
20260510091102 65 223 2.0 2.0 0.00 0.00 0.00 69 1015.7
20260510090559 64 354 3.0 5.0 0.00 0.00 0.00 63 1015.6
20260510090055 60 16 0.0 0.0 0.00 0.00 0.00 67 1015.3
20260510085550 59 185 0.0 0.0 0.00 0.00 0.00 74 1015.6
20260510085046 60 197 0.0 0.0 0.00 0.00 0.00 73 1015.6
20260510084543 60 203 0.0 0.0 0.00 0.00 0.00 70 1015.4
20260510084040 60 200 1.0 1.0 0.00 0.00 0.00 71 1015.4
20260510083536 60 208 0.0 0.0 0.00 0.00 0.00 75 1015.2
20260510083032 59 333 3.0 3.0 0.00 0.00 0.00 69 1015.2
20260510082529 59 202 2.0 2.0 0.00 0.00 0.00 74 1015.2
20260510082025 59 204 0.0 0.0 0.00 0.00 0.00 77 1015.4
20260510081520 58 189 0.0 0.0 0.00 0.00 0.00 76 1015.4
20260510081016 57 182 0.0 0.0 0.00 0.00 0.00 81 1015.6
20260510080515 57 182 0.0 0.0 0.00 0.00 0.00 82 1015.5
20260510080012 56 176 0.0 0.0 0.00 0.00 0.00 81 1015.7
20260510075510 58 206 0.0 0.0 0.00 0.00 0.00 82 1015.6
20260510075006 58 210 0.0 0.0 0.00 0.00 0.00 78 1015.5
20260510074504 57 183 0.0 0.0 0.00 0.00 0.00 77 1015.8
20260510073959 57 224 0.0 0.0 0.00 0.00 0.00 80 1015.5
20260510073455 57 53 0.0 0.0 0.00 0.00 0.00 77 1015.5
20260510072952 57 190 0.0 0.0 0.00 0.00 0.00 78 1015.4
20260510072449 56 197 0.0 0.0 0.00 0.00 0.00 81 1015.6
20260510071944 56 182 0.0 0.0 0.00 0.00 0.00 81 1015.4
20260510071441 58 205 0.0 0.0 0.00 0.00 0.00 79 1015.5
20260510070939 59 187 0.0 0.0 0.00 0.00 0.00 74 1015.5
20260510070436 59 146 0.0 0.0 0.00 0.00 0.00 75 1015.4
20260510065932 58 294 0.0 0.0 0.00 0.00 0.00 75 1015.5
20260510065429 58 176 0.0 0.0 0.00 0.00 0.00 75 1015.5
20260510064924 57 212 0.0 0.0 0.00 0.00 0.00 78 1015.2
20260510064422 57 230 0.0 0.0 0.00 0.00 0.00 78 1015.3
20260510063919 54 225 3.0 3.0 0.00 0.00 0.00 85 1015.6
20260510063415 54 221 4.0 5.0 0.00 0.00 0.00 85 1015.4
20260510062913 56 225 0.0 0.0 0.00 0.00 0.00 81 1015.4
20260510062408 59 219 0.0 0.0 0.00 0.00 0.00 77 1015.1
20260510061904 63 164 0.0 0.0 0.00 0.00 0.00 63 1015.2
20260510061400 62 44 0.0 0.0 0.00 0.00 0.00 64 1015.2
20260510060856 60 150 0.0 0.0 0.00 0.00 0.00 69 1014.9
20260510060353 60 174 0.0 0.0 0.00 0.00 0.00 71 1014.8
20260510055849 61 176 0.0 0.0 0.00 0.00 0.00 72 1015.1
20260510055349 65 90 0.0 0.0 0.00 0.00 0.00 62 1015.0
20260510054843 64 79 0.0 0.0 0.00 0.00 0.00 60 1015.0
20260510054338 63 308 0.0 0.0 0.00 0.00 0.00 62 1015.1
20260510053833 60 237 0.0 0.0 0.00 0.00 0.00 71 1015.2
20260510053329 60 180 0.0 0.0 0.00 0.00 0.00 75 1015.2
20260510052826 63 177 0.0 0.0 0.00 0.00 0.00 71 1015.3
20260510052321 65 51 0.0 0.0 0.00 0.00 0.00 58 1014.9
20260510051817 64 18 0.0 0.0 0.00 0.00 0.00 59 1015.2
20260510051314 63 244 0.0 0.0 0.00 0.00 0.00 64 1015.1
20260510050812 62 268 0.0 0.0 0.00 0.00 0.00 69 1015.0
20260510050308 61 179 0.0 0.0 0.00 0.00 0.00 69 1014.9
20260510045805 60 219 0.0 0.0 0.00 0.01 0.01 73 1014.8
20260510045305 61 228 0.0 0.0 0.00 0.01 0.01 73 1015.0
20260510044800 68 230 0.0 0.0 0.00 0.01 0.01 65 1014.8
20260510044256 68 42 0.0 0.0 0.00 0.01 0.01 54 1015.0
20260510043752 68 18 0.0 0.0 0.00 0.01 0.01 55 1015.0
20260510043249 68 36 0.0 1.0 0.00 0.01 0.01 56 1015.1
20260510042746 68 29 0.0 0.0 0.00 0.01 0.01 56 1014.9
20260510042241 68 27 0.0 0.0 0.00 0.01 0.01 56 1014.9
20260510041738 67 32 0.0 0.0 0.00 0.01 0.01 57 1014.7
20260510041236 67 25 0.0 0.0 0.00 0.01 0.01 58 1014.6
20260510040733 68 6 0.0 0.0 0.00 0.01 0.01 57 1014.5
20260510040230 68 359 0.0 0.0 0.00 0.01 0.01 56 1014.6
20260510035725 68 343 0.0 0.0 0.00 0.01 0.01 57 1014.3
20260510035221 68 344 0.0 0.0 0.00 0.01 0.01 57 1014.5
20260510034717 68 347 0.0 0.0 0.00 0.01 0.01 57 1014.4
20260510034215 66 8 0.0 0.0 0.00 0.01 0.01 58 1014.5
20260510033711 65 303 0.0 0.0 0.00 0.01 0.01 61 1014.5
20260510033209 65 203 0.0 0.0 0.00 0.01 0.01 63 1014.5
20260510032705 63 214 0.0 0.0 0.00 0.01 0.01 65 1014.7
20260510032201 64 203 0.0 0.0 0.00 0.01 0.01 66 1014.4
20260510031655 64 197 0.0 0.0 0.00 0.01 0.01 66 1014.5
20260510031152 64 175 0.0 0.0 0.00 0.01 0.01 65 1014.4
20260510030646 65 177 0.0 0.0 0.00 0.01 0.01 64 1014.2
20260510030144 67 179 0.0 0.0 0.00 0.01 0.01 58 1014.4
20260510025641 67 189 0.0 0.0 0.00 0.01 0.01 58 1014.2
20260510025139 67 187 0.0 0.0 0.00 0.01 0.01 58 1013.9
20260510024635 67 200 0.0 0.0 0.00 0.01 0.01 58 1013.9
20260510024132 67 292 0.0 0.0 0.00 0.01 0.01 57 1013.7
20260510023628 67 187 0.0 0.0 0.00 0.01 0.01 57 1013.8
20260510023125 65 183 0.0 0.0 0.00 0.01 0.01 58 1013.8
20260510022625 66 192 0.0 0.0 0.00 0.01 0.01 59 1013.3
20260510022120 67 200 0.0 0.0 0.00 0.01 0.01 55 1013.6
20260510021616 68 186 0.0 0.0 0.00 0.01 0.01 55 1013.2
20260510021114 68 245 0.0 0.0 0.00 0.01 0.01 54 1012.9
20260510020614 68 197 0.0 0.0 0.00 0.01 0.01 54 1013.0
20260510020109 70 188 0.0 0.0 0.00 0.01 0.01 54 1012.8
20260510015606 71 275 0.0 0.0 0.00 0.01 0.01 50 1012.5
20260510015102 71 328 0.0 0.0 0.00 0.01 0.01 48 1012.7
20260510014558 71 303 0.0 0.0 0.00 0.01 0.01 48 1012.4
20260510014056 73 20 0.0 0.0 0.00 0.01 0.01 47 1012.5
20260510013550 72 20 0.0 0.0 0.00 0.01 0.01 46 1012.6
20260510013046 72 15 0.0 0.0 0.00 0.01 0.01 48 1012.4
20260510012545 73 66 0.0 0.0 0.00 0.01 0.01 48 1012.4
20260510012042 73 352 0.0 0.0 0.00 0.01 0.01 47 1012.2
20260510011542 73 28 0.0 0.0 0.00 0.01 0.01 47 1012.2
20260510011038 73 355 0.0 0.0 0.00 0.01 0.01 50 1012.4
20260510010535 73 321 0.0 0.0 0.00 0.01 0.01 49 1012.2
20260510010032 74 348 0.0 0.0 0.00 0.01 0.01 47 1012.2
20260510005527 75 22 0.0 0.0 0.00 0.01 0.01 45 1012.2
20260510005025 75 51 0.0 0.0 0.00 0.01 0.01 45 1012.1
20260510004522 76 106 0.0 0.0 0.00 0.01 0.01 45 1012.1
20260510004021 76 90 0.0 0.0 0.00 0.01 0.01 44 1012.0
20260510003517 76 100 0.0 0.0 0.00 0.01 0.01 45 1012.1
20260510003012 76 82 0.0 0.0 0.00 0.01 0.01 45 1012.1
20260510002508 76 94 0.0 0.0 0.00 0.01 0.01 46 1012.0
20260510002005 76 70 0.0 0.0 0.00 0.01 0.01 47 1011.9
20260510001503 77 76 0.0 0.0 0.00 0.01 0.01 45 1011.8
20260510001001 77 75 0.0 0.0 0.00 0.01 0.01 46 1011.9
20260510000456 77 85 0.0 0.0 0.00 0.01 0.01 45 1011.8
20260509235952 77 84 0.0 0.0 0.00 0.01 0.01 45 1011.7
20260509235449 77 88 0.0 0.0 0.00 0.01 0.01 47 1012.0
20260509234945 78 84 0.0 0.0 0.00 0.01 0.01 45 1011.9
20260509234442 78 60 0.0 1.0 0.00 0.01 0.01 45 1011.9
20260509233940 78 69 1.0 2.0 0.00 0.01 0.01 44 1012.1
20260509233438 79 75 0.0 1.0 0.00 0.01 0.01 45 1012.0
20260509232933 79 89 0.0 0.0 0.00 0.01 0.01 41 1011.9
20260509232432 79 65 0.0 1.0 0.00 0.01 0.01 41 1012.0
20260509231927 79 40 1.0 1.0 0.00 0.01 0.01 44 1012.0
20260509231424 80 62 2.0 3.0 0.00 0.01 0.01 42 1012.1
20260509230922 80 132 0.0 0.0 0.00 0.01 0.01 41 1012.1
20260509230419 80 65 0.0 0.0 0.00 0.01 0.01 41 1011.9
20260509225915 80 63 0.0 0.0 0.00 0.01 0.01 39 1012.0
20260509225411 79 63 1.0 1.0 0.00 0.01 0.01 37 1012.1
20260509224908 79 54 4.0 5.0 0.00 0.01 0.01 40 1011.7
20260509224403 80 72 1.0 3.0 0.00 0.01 0.01 36 1011.9
20260509223901 80 78 2.0 6.0 0.00 0.01 0.01 36 1011.9
20260509223357 80 43 4.0 6.0 0.00 0.01 0.01 36 1011.8
20260509222854 80 87 2.0 3.0 0.00 0.01 0.01 33 1011.9
20260509222349 80 63 0.0 1.0 0.00 0.01 0.01 38 1011.8
20260509221844 80 38 4.0 5.0 0.00 0.01 0.01 36 1012.0
20260509221342 81 17 5.0 7.0 0.00 0.01 0.01 36 1011.7
20260509220837 80 149 3.0 3.0 0.00 0.01 0.01 34 1011.8
20260509220333 82 59 3.0 3.0 0.00 0.01 0.01 41 1012.0
20260509215829 81 52 1.0 1.0 0.00 0.01 0.01 40 1011.7
20260509215326 81 0 2.0 2.0 0.00 0.01 0.01 33 1011.8
20260509214823 81 25 0.0 2.0 0.00 0.01 0.01 36 1011.8
20260509214320 80 78 0.0 1.0 0.00 0.01 0.01 39 1011.8
20260509213817 81 74 0.0 1.0 0.00 0.01 0.01 39 1012.1
20260509213312 80 54 2.0 6.0 0.00 0.01 0.01 38 1011.8
20260509212810 80 53 2.0 7.0 0.00 0.01 0.01 37 1011.9
20260509212308 80 72 2.0 3.0 0.00 0.01 0.01 34 1011.9
20260509211803 81 96 7.0 7.0 0.00 0.01 0.01 37 1011.7
20260509211259 81 219 3.0 3.0 0.00 0.01 0.01 33 1011.8
20260509210756 80 121 2.0 3.0 0.00 0.01 0.01 35 1012.0
20260509210254 81 168 5.0 6.0 0.00 0.01 0.01 36 1012.0
20260509205753 84 151 2.0 2.0 0.00 0.01 0.01 35 1012.1
20260509205248 81 166 0.0 0.0 0.00 0.01 0.01 33 1012.0
20260509204744 81 93 0.0 0.0 0.00 0.01 0.01 39 1012.0
20260509204241 80 117 2.0 3.0 0.00 0.01 0.01 36 1012.2
20260509203737 81 68 2.0 3.0 0.00 0.01 0.01 39 1012.5
20260509203235 80 75 1.0 3.0 0.00 0.01 0.01 37 1012.1
20260509202730 80 122 3.0 3.0 0.00 0.01 0.01 38 1012.3
20260509202227 80 176 2.0 2.0 0.00 0.01 0.01 34 1012.4
20260509201721 80 155 0.0 0.0 0.00 0.01 0.01 35 1012.5
20260509201218 80 56 1.0 3.0 0.00 0.01 0.01 39 1012.5
20260509200714 80 117 8.0 10.0 0.00 0.01 0.01 38 1012.4
20260509200209 80 78 5.0 8.0 0.00 0.01 0.01 41 1012.5
20260509195705 80 119 4.0 5.0 0.00 0.01 0.01 41 1012.7
20260509195201 79 132 5.0 6.0 0.00 0.01 0.01 38 1012.8
20260509194655 81 236 0.0 0.0 0.00 0.01 0.01 36 1012.6
20260509194152 80 73 3.0 5.0 0.00 0.01 0.01 40 1012.6
20260509193648 81 115 6.0 8.0 0.00 0.01 0.01 40 1012.6
20260509193143 81 74 0.0 1.0 0.00 0.01 0.01 36 1012.8
20260509192640 79 86 0.0 0.0 0.00 0.01 0.01 41 1012.9
20260509192136 80 120 2.0 5.0 0.00 0.01 0.01 36 1012.7
20260509191635 79 88 2.0 3.0 0.00 0.01 0.01 42 1012.7
20260509191132 80 108 1.0 2.0 0.00 0.01 0.01 45 1012.8
20260509190629 80 250 0.0 0.0 0.00 0.01 0.01 35 1012.7
20260509190126 80 251 6.0 8.0 0.00 0.01 0.01 37 1012.7
20260509185624 79 177 0.0 0.0 0.00 0.01 0.01 43 1012.7
20260509185120 79 63 3.0 6.0 0.00 0.01 0.01 37 1012.7
20260509184618 78 65 1.0 2.0 0.00 0.01 0.01 38 1012.8
20260509184114 79 148 4.0 5.0 0.00 0.01 0.01 40 1013.0
20260509183610 79 80 0.0 0.0 0.00 0.01 0.01 36 1012.7
20260509183106 80 120 6.0 7.0 0.00 0.01 0.01 38 1012.8
20260509182602 80 187 0.0 0.0 0.00 0.01 0.01 37 1012.7
20260509182059 79 96 1.0 2.0 0.00 0.01 0.01 40 1012.7
20260509181558 79 139 2.0 2.0 0.00 0.01 0.01 43 1012.7
20260509181054 80 179 0.0 0.0 0.00 0.01 0.01 38 1012.8
20260509180550 78 234 0.0 0.0 0.00 0.01 0.01 40 1013.0
20260509180048 78 143 6.0 8.0 0.00 0.01 0.01 43 1012.8
20260509175543 78 103 3.0 3.0 0.00 0.01 0.01 50 1012.9
20260509175041 77 61 1.0 3.0 0.00 0.01 0.01 49 1013.1
20260509174536 79 14 1.0 2.0 0.00 0.01 0.01 46 1012.8
20260509174031 78 168 0.0 1.0 0.00 0.01 0.01 48 1012.9
20260509173521 78 107 6.0 7.0 0.00 0.01 0.01 48 1012.9
20260509173017 76 303 1.0 1.0 0.00 0.01 0.01 48 1012.9
20260509172515 77 82 1.0 2.0 0.00 0.01 0.01 52 1013.0
20260509172010 76 80 1.0 3.0 0.00 0.01 0.01 50 1013.2
20260509171506 76 68 1.0 2.0 0.00 0.01 0.01 51 1013.2
20260509171003 76 43 0.0 1.0 0.00 0.01 0.01 53 1013.3
20260509170458 76 73 3.0 5.0 0.00 0.01 0.01 52 1013.2
20260509165954 76 46 1.0 2.0 0.00 0.01 0.01 52 1013.1
20260509165453 76 132 2.0 2.0 0.00 0.01 0.01 52 1013.6
20260509164949 75 85 1.0 1.0 0.00 0.01 0.01 52 1013.2
20260509164445 75 76 5.0 7.0 0.00 0.01 0.01 51 1013.4
20260509163941 75 58 2.0 6.0 0.00 0.01 0.01 59 1013.4
20260509163439 75 123 4.0 6.0 0.00 0.01 0.01 60 1013.3
20260509162937 75 65 3.0 6.0 0.00 0.01 0.01 56 1013.4
20260509162437 75 71 1.0 2.0 0.00 0.01 0.01 57 1013.2
20260509161932 74 103 3.0 3.0 0.00 0.01 0.01 55 1013.2
20260509161429 74 37 5.0 6.0 0.00 0.01 0.01 58 1013.2
20260509160924 74 119 6.0 7.0 0.00 0.01 0.01 61 1013.2
20260509160420 74 77 3.0 5.0 0.00 0.01 0.01 57 1013.2
20260509155915 73 121 0.0 1.0 0.00 0.01 0.01 59 1013.3
20260509155413 73 71 3.0 5.0 0.00 0.01 0.01 60 1013.1
20260509154909 72 124 3.0 3.0 0.00 0.01 0.01 59 1013.3
20260509154405 72 75 2.0 3.0 0.00 0.01 0.01 61 1013.1
20260509153902 71 64 0.0 1.0 0.00 0.01 0.01 66 1013.0
20260509153359 71 66 1.0 2.0 0.00 0.01 0.01 66 1013.2
20260509152856 71 33 3.0 3.0 0.00 0.01 0.01 65 1013.1
20260509152352 71 68 3.0 3.0 0.00 0.01 0.01 66 1012.9
20260509151849 71 71 2.0 3.0 0.00 0.01 0.01 69 1013.1
20260509151345 70 130 2.0 2.0 0.00 0.01 0.01 69 1013.2
20260509150844 70 124 1.0 1.0 0.00 0.01 0.01 67 1013.1
20260509150341 70 75 1.0 1.0 0.00 0.01 0.01 70 1013.0
20260509145838 69 95 4.0 5.0 0.00 0.01 0.01 72 1013.0
20260509145333 69 119 3.0 3.0 0.00 0.01 0.01 71 1013.3
20260509144830 68 154 3.0 5.0 0.00 0.01 0.01 72 1013.1
20260509144327 68 125 4.0 5.0 0.00 0.01 0.01 73 1013.4
20260509143824 67 114 3.0 3.0 0.00 0.01 0.01 76 1013.2
20260509143321 66 126 2.0 2.0 0.00 0.01 0.01 81 1013.0
20260509142817 66 101 5.0 6.0 0.00 0.01 0.01 78 1013.0